Beckfoot, United Kingdom
Current Conditions -  °F | °C
As of 3:20 AM on Saturday 22 Nov 2014 (Local Time) from EGNM Reporting Station
Light Rain Light Rain  
Wind Chill: 38°   Ceiling: Unl
Heat Index: 45°   Visibility: 0.18mi
Dew Point: 45°   Wind: 13mph
Humidity: 100%   Direction: 150°SSE
Pressure: 29.8"   Gusts: NA
Location:  53.84°N, 1.84°W
Report Text: EGNM 220320Z 15011KT 0300 -RA FG VV/// 07/07 Q1009
Loading
Personal Weather Stations






























Interactive Weather Map New forecast layout! Learn more

10-Day Weather Forecast

Advertisements
Track Severe Weather on mobile